Weather History for Ohio State University, OH

Change the Weather History Date:

Monday, August 11, 2014

  Actual Average Record
Temperature  
Mean Temperature 76 °F -  
Max Temperature 82 °F 80 °F 91 °F (2002)
Min Temperature 69 °F 61 °F 55 °F (2008)
Cooling Degree Days 10    
Growing Degree Days 26 (Base 50)    
Moisture  
Dew Point 69 °F    
Average Humidity 85    
Maximum Humidity 96    
Minimum Humidity 63    
Precipitation  
Precipitation 1.14 in - - ()
Sea Level Pressure  
Sea Level Pressure 29.88 in    
Wind  
Wind Speed 9 mph (SSE)    
Max Wind Speed 15 mph    
Max Gust Speed 22 mph    
Visibility 6 miles    
Events Rain , Thunderstorm    
Averages and records for this station are not official NWS values.
T = Trace of Precipitation, MM = Missing Value Source: NWS Daily Summary

Daily Weather History Graph

Daily Weather History Graph

Search for Another Location

Airport:

Trip Planner

Search our weather history database for the weather conditions in past years. The results will help you decide how hot, cold, wet, or windy it might be!

Date:

Astronomy

Aug. 11, 2014 Rise Set
Actual Time 6:39 AM EDT 8:34 PM EDT
Civil Twilight 6:10 AM EDT 9:03 PM EDT
Nautical Twilight 5:34 AM EDT 9:39 PM EDT
Astronomical Twilight 4:56 AM EDT 10:17 PM EDT
Moon 9:01 PM EDT (8/11) 7:43 AM EDT (8/11)
Length of Visible Light 14h 53m
Length of Day
13h 54m
Full, 99% of the Moon is Illuminated
Aug 11
Full
Aug 17
Last Quarter
Aug 25
New
Sep 2
First Quarter
Sep 8
Full

Hourly Weather History & Observations

Time (EDT) Temp. Heat Index Dew Point Humidity Pressure Visibility Wind Dir Wind Speed Gust Speed Precip Events Conditions
12:03 AM 77.0 °F - 68.0 °F 74% 29.99 in 10.0 mi SE 8.1 mph - N/A   Overcast
12:53 AM 75.9 °F - 68.0 °F 76% 29.97 in 10.0 mi SE 10.4 mph - N/A   Overcast
1:11 AM 75.9 °F - 68.0 °F 76% 29.99 in 10.0 mi SE 8.1 mph - N/A   Overcast
1:53 AM 75.0 °F - 66.9 °F 76% 29.95 in 10.0 mi SSE 9.2 mph - N/A   Overcast
2:53 AM 73.9 °F - 66.0 °F 76% 29.94 in 10.0 mi SE 10.4 mph - N/A   Overcast
3:53 AM 73.0 °F - 66.0 °F 79% 29.93 in 10.0 mi ESE 8.1 mph - N/A   Overcast
4:28 AM 73.0 °F - 64.9 °F 76% 29.94 in 10.0 mi SE 9.2 mph - N/A Thunderstorm Overcast
4:53 AM 70.0 °F - 66.9 °F 90% 29.92 in 2.0 mi SSE 10.4 mph - 0.07 in Rain , Thunderstorm Heavy Rain
4:58 AM 70.0 °F - 68.0 °F 93% 29.94 in 1.5 mi SSE 10.4 mph - 0.11 in Rain , Thunderstorm Heavy Thunderstorms and Rain
5:24 AM 69.1 °F - 68.0 °F 96% 29.93 in 0.8 mi SE 15.0 mph - 0.76 in Rain , Thunderstorm Heavy Thunderstorms and Rain
5:36 AM 69.1 °F - 66.9 °F 93% 29.93 in 2.0 mi ESE 10.4 mph - 0.90 in Rain , Thunderstorm Light Thunderstorms and Rain
5:43 AM 69.1 °F - 66.9 °F 93% 29.93 in 10.0 mi ESE 8.1 mph - 0.91 in Rain , Thunderstorm Light Rain
5:53 AM 69.1 °F - 66.9 °F 93% 29.91 in 10.0 mi ESE 8.1 mph - 0.91 in Rain , Thunderstorm Light Rain
6:33 AM 69.1 °F - 66.9 °F 93% 29.93 in 10.0 mi ESE 6.9 mph - 0.00 in   Overcast
6:53 AM 69.1 °F - 66.9 °F 93% 29.90 in 10.0 mi SE 8.1 mph - 0.00 in   Overcast
7:37 AM 70.0 °F - 66.9 °F 90% 29.92 in 10.0 mi ESE 9.2 mph - N/A   Overcast
7:53 AM 69.1 °F - 66.9 °F 93% 29.91 in 10.0 mi SE 10.4 mph - N/A   Overcast
8:14 AM 69.1 °F - 66.9 °F 93% 29.92 in 2.0 mi SE 10.4 mph - 0.04 in Rain Rain
8:30 AM 69.1 °F - 68.0 °F 96% 29.92 in 2.5 mi SE 9.2 mph - 0.05 in   Overcast
8:53 AM 70.0 °F - 68.0 °F 93% 29.90 in 2.5 mi SE 8.1 mph - 0.05 in Rain Light Rain
9:00 AM 69.1 °F - 68.0 °F 96% 29.92 in 2.0 mi SE 9.2 mph - 0.00 in   Overcast
9:06 AM 70.0 °F - 68.0 °F 93% 29.92 in 3.0 mi SSE 6.9 mph - 0.00 in Rain Light Rain
9:15 AM 70.0 °F - 68.0 °F 93% 29.92 in 3.0 mi SE 10.4 mph - 0.01 in   Overcast
9:53 AM 71.1 °F - 68.0 °F 90% 29.89 in 3.0 mi SSE 10.4 mph - 0.01 in   Overcast
10:00 AM 71.1 °F - 68.0 °F 90% 29.91 in 10.0 mi SSE 9.2 mph - N/A   Overcast
10:53 AM 73.9 °F - 70.0 °F 87% 29.87 in 8.0 mi South 9.2 mph - 0.00 in   Overcast
11:31 AM 75.0 °F - 70.0 °F 84% 29.89 in 7.0 mi SSE 9.2 mph - N/A   Overcast
11:46 AM 77.0 °F - 71.1 °F 82% 29.89 in 7.0 mi SSE 9.2 mph - N/A   Mostly Cloudy
11:53 AM 77.0 °F - 71.1 °F 82% 29.86 in 7.0 mi SSE 10.4 mph - N/A   Mostly Cloudy
12:32 PM 75.9 °F - 70.0 °F 82% 29.88 in 2.0 mi SSE 11.5 mph - 0.03 in Rain Light Rain
12:42 PM 77.0 °F - 72.0 °F 84% 29.88 in 6.0 mi South 9.2 mph - 0.03 in   Haze
12:53 PM 75.9 °F - 70.0 °F 82% 29.86 in 6.0 mi South 9.2 mph - 0.03 in   Haze
1:29 PM 78.1 °F - 73.0 °F 84% 29.86 in 5.0 mi SSE 13.8 mph - 0.02 in Thunderstorm Haze
1:44 PM 77.0 °F - 72.0 °F 84% 29.86 in 5.0 mi South 15.0 mph - 0.02 in   Haze
1:53 PM 78.1 °F - 72.0 °F 81% 29.83 in 5.0 mi South 10.4 mph - 0.02 in   Haze
2:53 PM 81.0 °F 84.1 °F 69.1 °F 67% 29.80 in 7.0 mi SSW 11.5 mph - 0.01 in   Mostly Cloudy
3:53 PM 81.0 °F 84.1 °F 69.1 °F 67% 29.79 in 6.0 mi SSW 12.7 mph - 0.00 in Rain Light Rain
4:53 PM 82.9 °F 86.5 °F 69.1 °F 63% 29.78 in 7.0 mi SW 13.8 mph 21.9 mph 0.00 in   Scattered Clouds
5:53 PM 80.1 °F 82.7 °F 68.0 °F 67% 29.77 in 9.0 mi WSW 9.2 mph - N/A   Scattered Clouds
6:18 PM 77.0 °F - 71.1 °F 82% 29.79 in 5.0 mi SSW 11.5 mph - 0.00 in Rain , Thunderstorm Light Rain
6:53 PM 73.9 °F - 71.1 °F 91% 29.77 in 5.0 mi SSW 12.7 mph - 0.04 in Rain , Thunderstorm Light Thunderstorms and Rain
7:53 PM 73.9 °F - 70.0 °F 87% 29.76 in 6.0 mi SSE 9.2 mph - 0.00 in   Mostly Cloudy
8:53 PM 73.0 °F - 70.0 °F 90% 29.77 in 7.0 mi SSW 8.1 mph - N/A   Overcast
9:53 PM 73.0 °F - 70.0 °F 90% 29.79 in 6.0 mi SW 6.9 mph - N/A   Overcast
10:53 PM 73.0 °F - 69.1 °F 87% 29.78 in 10.0 mi WSW 5.8 mph - 0.00 in   Overcast
11:53 PM 72.0 °F - 68.0 °F 87% 29.79 in 10.0 mi WSW 4.6 mph - N/A   Overcast